カタログに戻る

NAVSTAR 13

USA 35

LostナビゲーションMEO
NORAD 19802·PAYLOAD·🇺🇸 United States

打ち上げ Feb 14, 1989 から Cape Canaveral Space Force Station

Loading…

次のパス (今後24時間)

TLE

古いSource: Space-Track

元期: Aug 4, 2026, 23:20 UTC

1 19802U 89013A   26216.97267242 -.00000015  00000-0  00000+0 0  9993
2 19802  55.0592  92.9874 0043310 250.6859 291.4816  1.85325503259170

AllMySatでNAVSTAR 13をリアルタイム追跡

Download on the App Store